CEF4 Weather Reports


time (UTC)temp
C
wind
direction
speed
KPH
gust
KPH
rain 1hr
cm
rain 24hr
cm
rain mn
cm
humidity
%
barometer
mb
20260507062254 10 274 8.0 12.9 13.11 0.00 0.00
20260507060954 11 278 9.7 16.1 13.11 0.00 0.00
20260507055654 10 307 4.8 9.7 13.11 0.00 0.00
20260507054354 10 316 0.0 1.6 13.11 0.00 0.00
20260507053054 10 0 0.0 0.0 13.11 0.00 0.00
20260507051754 10 0 0.0 0.0 13.11 0.00 0.00
20260507050454 11 359 0.0 4.8 13.11 0.00 0.00
20260507045155 10 354 1.6 11.3 13.11 0.00 0.00
20260507043854 10 20 3.2 6.4 13.11 0.00 0.00
20260507042554 11 60 6.4 8.0 13.11 0.00 0.00
20260507041254 10 73 8.0 9.7 13.11 0.00 0.00
20260507035954 10 83 12.9 16.1 13.11 0.00 0.00
20260507034654 10 65 14.5 16.1 13.11 0.00 0.00
20260507033354 11 63 12.9 16.1 13.11 0.00 0.00
20260507032055 12 48 12.9 14.5 13.11 0.00 0.00
20260507025454 13 37 12.9 16.1 13.11 0.00 0.00
20260507024154 15 18 16.1 20.9 13.11 0.00 0.00
20260507022854 15 31 19.3 25.7 13.11 0.00 0.00
20260507021554 16 21 24.1 29.0 13.11 0.00 0.00
20260507020254 16 27 19.3 27.4 13.11 0.00 0.00
20260507014954 17 357 24.1 37.0 13.11 0.00 0.00
20260507013654 17 11 9.7 14.5 13.11 0.00 0.00
20260507012354 18 8 11.3 19.3 13.11 0.00 0.00
20260507011054 18 342 8.0 20.9 13.11 0.00 0.00
20260507005754 18 287 9.7 20.9 13.11 0.00 0.00
20260507004454 18 288 9.7 24.1 13.11 0.00 0.00
20260507003154 18 298 6.4 20.9 13.11 0.00 0.00
20260507001854 19 340 8.0 17.7 13.11 0.00 0.00
20260507000554 20 352 12.9 29.0 13.11 0.00 0.00
20260506235254 21 11 12.9 16.1 13.11 0.00 0.00
20260506233954 20 11 11.3 16.1 13.11 0.00 0.00
20260506232654 20 350 11.3 24.1 13.11 0.00 0.00
20260506230054 20 346 11.3 24.1 13.11 0.00 0.00
20260506224754 20 343 6.4 14.5 13.11 0.00 0.00
20260506223454 20 345 8.0 19.3 13.11 0.00 0.00
20260506222154 21 353 4.8 14.5 13.11 0.00 0.00
20260506220854 21 3 3.2 14.5 13.11 0.00 0.00
20260506215554 21 3 8.0 14.5 13.11 0.00 0.00
20260506214254 21 357 6.4 16.1 13.11 0.00 0.00
20260506212954 21 353 12.9 20.9 13.11 0.00 0.00
20260506211654 21 359 9.7 20.9 13.11 0.00 0.00
20260506210354 20 345 11.3 19.3 13.11 0.00 0.00
20260506205054 21 356 1.6 11.3 13.11 0.00 0.00
20260506203754 22 283 8.0 17.7 13.11 0.00 0.00
20260506202454 22 8 9.7 25.7 13.11 0.00 0.00
20260506201154 20 141 3.2 12.9 13.11 0.00 0.00
20260506195854 19 149 6.4 11.3 13.11 0.00 0.00
20260506194554 21 7 9.7 20.9 13.11 0.00 0.00
20260506193254 20 72 6.4 22.5 13.11 0.00 0.00
20260506191954 19 8 3.2 11.3 13.11 0.00 0.00
20260506190654 18 110 9.7 17.7 13.11 0.00 0.00
20260506185354 18 114 12.9 20.9 13.11 0.00 0.00
20260506184054 17 113 6.4 14.5 13.11 0.00 0.00
20260506182754 17 111 11.3 16.1 13.11 0.00 0.00
20260506181455 17 91 9.7 17.7 13.11 0.00 0.00
20260506180154 16 114 12.9 17.7 13.11 0.00 0.00
20260506174856 16 120 12.9 20.9 13.11 0.00 0.00
20260506173555 16 167 12.9 22.5 13.11 0.00 0.00
20260506170954 14 160 14.5 22.5 13.11 0.00 0.00
20260506165654 13 153 17.7 24.1 13.11 0.00 0.00
20260506164354 13 145 14.5 20.9 13.11 0.00 0.00
20260506163054 12 149 17.7 22.5 13.11 0.00 0.00
20260506161754 12 156 14.5 20.9 13.11 0.00 0.00
20260506160454 12 155 17.7 22.5 13.11 0.00 0.00
20260506153854 10 156 14.5 19.3 13.11 0.00 0.00
20260506152553 8 158 14.5 17.7 13.11 0.00 0.00
20260506151253 8 188 12.9 16.1 13.11 0.00 0.00
20260506145953 7 187 11.3 17.7 13.11 0.00 0.00
20260506144654 6 180 12.9 17.7 13.11 0.00 0.00
20260506143353 5 201 11.3 16.1 13.11 0.00 0.00
20260506142053 5 190 9.7 14.5 13.11 0.00 0.00
20260506140753 3 194 12.9 16.1 13.11 0.00 0.00
20260506135453 3 198 11.3 14.5 13.11 0.00 0.00
20260506134153 2 184 11.3 14.5 13.11 0.00 0.00
20260506132853 1 184 11.3 16.1 13.11 0.00 0.00
20260506131553 1 179 9.7 12.9 13.11 0.00 0.00
20260506130253 0 174 12.9 14.5 13.11 0.00 0.00
20260506124953 0 163 11.3 12.9 13.11 0.00 0.00
20260506123653 -1 158 14.5 16.1 13.11 0.00 0.00
20260506122353 -1 160 12.9 14.5 13.11 0.00 0.00
20260506121053 -2 162 11.3 12.9 13.11 0.00 0.00
20260506115754 -2 159 9.7 11.3 13.11 0.00 0.00
20260506114453 -2 152 14.5 16.1 13.11 0.00 0.00
20260506113153 -2 159 12.9 14.5 13.11 0.00 0.00
20260506111853 -1 162 12.9 14.5 13.11 0.00 0.00
20260506110553 -1 162 12.9 14.5 13.11 0.00 0.00
20260506105253 -1 169 9.7 12.9 13.11 0.00 0.00
20260506103953 -1 159 12.9 16.1 13.11 0.00 0.00
20260506102653 -1 169 12.9 16.1 13.11 0.00 0.00
20260506101353 -1 153 12.9 16.1 13.11 0.00 0.00
20260506100053 -1 149 11.3 16.1 13.11 0.00 0.00
20260506094753 -1 136 12.9 16.1 13.11 0.00 0.00
20260506093453 -1 145 12.9 16.1 13.11 0.00 0.00
20260506092153 0 149 17.7 20.9 13.11 0.00 0.00
20260506090853 0 141 12.9 22.5 13.11 0.00 0.00
20260506085553 0 162 19.3 22.5 13.11 0.00 0.00
20260506084253 0 146 11.3 19.3 13.11 0.00 0.00
20260506082953 0 142 16.1 19.3 13.11 0.00 0.00
20260506081653 0 152 19.3 24.1 13.11 0.00 0.00
20260506080353 0 148 16.1 20.9 13.11 0.00 0.00
20260506072453 0 146 9.7 14.5 13.11 0.00 0.00
20260506071153 0 125 9.7 14.5 13.11 0.00 0.00